Des Moines, IA

3:24 PM CDT on April 26, 2017 (GMT -0500)
Des Moines International

Weather History for KDSM - July, 2013

Change the Weather History Date:

Saturday, July 27, 2013

  Actual Average Record
Temperature  
Mean Temperature 65 °F 76 °F  
Max Temperature 73 °F 86 °F 106 °F (1930)
Min Temperature 56 °F 67 °F 53 °F (1971)
Degree Days  
Heating Degree Days 0 0  
Month to date heating degree days 0 0  
Since 1 June heating degree days 19 17  
Since 1 July heating degree days 0 0  
Cooling Degree Days 0 11  
Month to date cooling degree days 335 304  
Year to date cooling degree days 692 601  
Since 1 June cooling degree days 590 525  
Growing Degree Days 14 (Base 50)    
Moisture  
Dew Point 47 °F    
Average Humidity 59    
Maximum Humidity 83    
Minimum Humidity 35    
Precipitation  
Precipitation 0.00 in 0.14 in 1.40 in (2008)
Month to date precipitation 0.83 3.94  
Year to date precipitation 22.37 22.06  
Snow  
Snow 0.00 in 0.00 in - ()
Month to date snowfall 0.0 0.0  
Since 1 June snowfall 0.0 0.0  
Since 1 July snowfall 0.0 0.0  
Snow Depth 0.00 in    
Sea Level Pressure  
Sea Level Pressure 30.03 in    
Wind  
Wind Speed 9 mph (NNW)    
Max Wind Speed 22 mph    
Max Gust Speed 30 mph    
Visibility 10 miles    
Events      
T = Trace of Precipitation, MM = Missing Value Source: NWS Daily Summary

Daily Weather History Graph

Daily Weather History Graph

Search for Another Location

Airport or City:

Trip Planner

Search our weather history database for the weather conditions in past years. The results will help you decide how hot, cold, wet, or windy it might be!

Date:

Astronomy

Jul. 27, 2013 Rise Set
Actual Time 6:04 AM CDT 8:37 PM CDT
Civil Twilight 5:32 AM CDT 9:08 PM CDT
Nautical Twilight 4:53 AM CDT 9:48 PM CDT
Astronomical Twilight 4:08 AM CDT 10:32 PM CDT
Moon 11:19 PM CDT (7/27) 11:51 AM CDT (7/27)
Length of Visible Light 15h 35m
Length of Day
14h 32m
Waning Gibbous, 70% of the Moon is Illuminated
Jul 27
Waning Gibbous
Jul 29
Last Quarter
Aug 6
New
Aug 14
First Quarter
Aug 20
Full

Hourly Weather History & Observations

Time (CDT) Temp. Dew Point Humidity Pressure Visibility Wind Dir Wind Speed Gust Speed Precip Events Conditions
12:54 AM 62.1 °F 53.1 °F 72% 30.04 in 10.0 mi NNW 5.8 mph - N/A   Clear
1:54 AM 61.0 °F 52.0 °F 72% 30.04 in 10.0 mi NNW 6.9 mph - N/A   Clear
2:54 AM 59.0 °F 52.0 °F 78% 30.05 in 10.0 mi NNW 6.9 mph - N/A   Clear
3:54 AM 57.9 °F 51.1 °F 78% 30.04 in 10.0 mi NNW 5.8 mph - N/A   Clear
4:54 AM 57.9 °F 51.1 °F 78% 30.05 in 10.0 mi North 5.8 mph - N/A   Clear
5:54 AM 55.9 °F 50.0 °F 80% 30.05 in 10.0 mi North 4.6 mph - N/A   Clear
6:54 AM 57.0 °F 51.1 °F 81% 30.06 in 10.0 mi North 4.6 mph - N/A   Scattered Clouds
7:54 AM 61.0 °F 51.1 °F 70% 30.08 in 10.0 mi North 6.9 mph - N/A   Mostly Cloudy
8:54 AM 62.1 °F 50.0 °F 65% 30.09 in 10.0 mi North 8.1 mph - N/A   Scattered Clouds
9:54 AM 64.0 °F 46.0 °F 52% 30.08 in 10.0 mi North 9.2 mph - N/A   Partly Cloudy
10:54 AM 66.9 °F 46.9 °F 49% 30.07 in 10.0 mi NW 13.8 mph 19.6 mph N/A   Scattered Clouds
11:54 AM 66.9 °F 46.0 °F 47% 30.06 in 10.0 mi NNW 12.7 mph - N/A   Scattered Clouds
12:54 PM 69.1 °F 45.0 °F 42% 30.05 in 10.0 mi NNW 15.0 mph 21.9 mph N/A   Mostly Cloudy
1:54 PM 71.1 °F 44.1 °F 38% 30.04 in 10.0 mi NNW 18.4 mph - N/A   Partly Cloudy
2:54 PM 72.0 °F 45.0 °F 38% 30.02 in 10.0 mi NNW 13.8 mph 20.7 mph N/A   Scattered Clouds
3:54 PM 72.0 °F 44.1 °F 37% 30.01 in 10.0 mi NNW 16.1 mph 23.0 mph N/A   Partly Cloudy
4:54 PM 71.1 °F 43.0 °F 36% 30.00 in 10.0 mi North 11.5 mph - N/A   Scattered Clouds
5:54 PM 72.0 °F 42.1 °F 34% 29.99 in 10.0 mi NNW 13.8 mph - N/A   Partly Cloudy
6:54 PM 71.1 °F 43.0 °F 36% 29.99 in 10.0 mi North 10.4 mph - N/A   Partly Cloudy
7:54 PM 69.1 °F 43.0 °F 39% 29.99 in 10.0 mi North 8.1 mph - N/A   Partly Cloudy
8:54 PM 66.0 °F 44.1 °F 45% 29.99 in 10.0 mi NNW 4.6 mph - N/A   Partly Cloudy
9:54 PM 64.0 °F 45.0 °F 50% 30.00 in 10.0 mi Calm Calm - N/A   Partly Cloudy
10:54 PM 62.1 °F 46.0 °F 56% 30.01 in 10.0 mi WNW 4.6 mph - N/A   Partly Cloudy
11:54 PM 59.0 °F 48.0 °F 67% 30.01 in 10.0 mi WNW 3.5 mph - N/A   Clear